NC0S Weather Reports


time (UTC)temp
C
wind
direction
speed
KPH
gust
KPH
rain 1hr
cm
rain 24hr
cm
rain mn
cm
humidity
%
barometer
mb
20260505071028 11 347 0.0 3.2 0.53 1.57 1.57 81 1009.3
20260505070028 12 61 0.0 3.2 1.12 1.55 1.55 79 1008.5
20260505065028 13 357 0.0 6.4 1.45 1.52 1.52 78 1008.6
20260505064028 12 0.0 0.0 1.50 1.50 1.50 88 1008.5
20260505063028 13 15 0.0 3.2 1.45 1.45 1.45 84 1008.1
20260505062027 12 34 0.0 4.8 1.35 1.35 1.35 88 1007.7
20260505061129 13 0 0.0 6.4 1.04 1.04 1.04 83 1007.8
20260505060028 15 1 0.0 6.4 0.43 0.43 0.43 74 1007.2
20260505055028 16 13 3.2 11.3 0.08 0.08 0.08 60 1006.6
20260505054028 18 7 4.8 14.5 0.00 0.00 0.00 49 1006.1
20260505053028 20 41 8.0 17.7 0.00 0.00 0.00 46 1006.1
20260505052028 21 28 4.8 14.5 0.00 0.00 0.00 43 1005.9
20260505051028 21 335 3.2 9.7 0.00 0.00 0.00 63 1005.5
20260505041048 21 0.0 1.6 0.00 0.00 0.00 68 1004.8
20260505040028 21 149 1.6 4.8 0.00 0.00 0.00 68 1005.1
20260505035029 21 133 0.0 3.2 0.00 0.00 0.00 68 1004.9
20260505034028 21 0.0 1.6 0.00 0.00 0.00 68 1004.9
20260505033048 21 124 0.0 1.6 0.00 0.00 0.00 67 1005.0
20260505032028 21 0.0 3.2 0.00 0.00 0.00 66 1005.0
20260505031028 21 0.0 3.2 0.00 0.00 0.00 66 1004.8
20260505030048 21 0.0 0.0 0.00 0.00 0.00 64 1004.6
20260505025028 21 0.0 0.0 0.00 0.00 0.00 63 1004.6
20260505024028 22 0.0 0.0 0.00 0.00 0.00 62 1004.5
20260505023029 22 0.0 0.0 0.00 0.00 0.00 60 1004.3
20260505022028 22 0.0 0.0 0.00 0.00 0.00 60 1004.1
20260505021028 22 0.0 0.0 0.00 0.00 0.00 59 1003.9
20260505020108 22 0.0 0.0 0.00 0.00 0.00 60 1003.9
20260505015028 22 0.0 0.0 0.00 0.00 0.00 59 1003.8
20260505014028 22 0.0 0.0 0.00 0.00 0.00 58 1003.6
20260505013028 22 0.0 0.0 0.00 0.00 0.00 56 1003.5
20260505012029 23 0.0 0.0 0.00 0.00 0.00 55 1003.3
20260505011028 23 0.0 0.0 0.00 0.00 0.00 54 1003.3
20260505010028 23 0.0 0.0 0.00 0.00 0.00 51 1003.1
20260505005048 24 0.0 0.0 0.00 0.00 0.00 49 1003.0
20260505004028 25 0.0 0.0 0.00 0.00 0.00 48 1002.9
20260505003028 25 0.0 0.0 0.00 0.00 0.00 47 1002.8
20260505002028 25 0.0 0.0 0.00 0.00 0.00 46 1002.8
20260505001027 25 0.0 0.0 0.00 0.00 0.00 46 1002.7
20260505000048 26 0.0 0.0 0.00 0.00 0.00 45 1002.8
20260504235028 26 0.0 1.6 0.00 0.00 0.00 45 1002.7
20260504234028 26 142 0.0 1.6 0.00 0.00 0.00 44 1002.9
20260504233048 26 0.0 1.6 0.00 0.00 0.00 44 1002.8
20260504232029 26 129 0.0 3.2 0.00 0.00 0.00 44 1003.0
20260504231048 26 0.0 1.6 0.00 0.00 0.00 44 1002.9
20260504230029 27 0.0 3.2 0.00 0.00 0.00 43 1003.0
20260504225028 27 124 0.0 4.8 0.00 0.00 0.00 42 1002.9
20260504224028 27 126 0.0 3.2 0.00 0.00 0.00 42 1002.8
20260504223028 27 198 0.0 4.8 0.00 0.00 0.00 43 1002.8
20260504222049 27 112 0.0 6.4 0.00 0.00 0.00 43 1002.9
20260504221048 27 224 0.0 3.2 0.00 0.00 0.00 42 1003.0
20260504220028 26 230 0.0 1.6 0.00 0.00 0.00 44 1003.0
20260504215028 26 0.0 1.6 0.00 0.00 0.00 44 1003.2
20260504214028 26 237 0.0 1.6 0.00 0.00 0.00 43 1003.4
20260504213028 26 215 0.0 3.2 0.00 0.00 0.00 44 1003.4
20260504212108 26 127 0.0 3.2 0.00 0.00 0.00 42 1003.4
20260504211029 26 186 1.6 4.8 0.00 0.00 0.00 44 1003.5
20260504210028 26 253 0.0 9.7 0.00 0.00 0.00 43 1003.5
20260504205049 26 202 1.6 4.8 0.00 0.00 0.00 41 1003.7
20260504204028 27 206 0.0 1.6 0.00 0.00 0.00 42 1003.7
20260504203028 26 252 0.0 1.6 0.00 0.00 0.00 42 1003.8
20260504202028 27 232 0.0 1.6 0.00 0.00 0.00 43 1003.8
20260504201028 26 243 1.6 6.4 0.00 0.00 0.00 42 1003.8
20260504200048 26 184 1.6 3.2 0.00 0.00 0.00 41 1003.9
20260504195028 27 205 1.6 4.8 0.00 0.00 0.00 41 1003.9
20260504194028 27 196 0.0 4.8 0.00 0.00 0.00 45 1004.0
20260504193047 27 37 1.6 3.2 0.00 0.00 0.00 44 1003.9
20260504192028 26 159 0.0 4.8 0.00 0.00 0.00 44 1004.0
20260504191028 26 279 0.0 3.2 0.00 0.00 0.00 45 1004.1
20260504190028 26 206 1.6 3.2 0.00 0.00 0.00 44 1004.1
20260504185028 26 232 1.6 3.2 0.00 0.00 0.00 42 1004.2
20260504184029 26 235 1.6 3.2 0.00 0.00 0.00 42 1004.2
20260504183047 26 140 0.0 3.2 0.00 0.00 0.00 42 1004.3
20260504182028 26 244 0.0 3.2 0.00 0.00 0.00 42 1004.5
20260504181108 26 213 1.6 3.2 0.00 0.00 0.00 44 1004.5
20260504180028 26 246 1.6 4.8 0.00 0.00 0.00 43 1004.6
20260504175028 25 224 0.0 3.2 0.00 0.00 0.00 42 1004.8
20260504174028 25 259 0.0 3.2 0.00 0.00 0.00 43 1004.7
20260504173028 25 296 0.0 6.4 0.00 0.00 0.00 44 1004.7
20260504172028 25 189 1.6 9.7 0.00 0.00 0.00 44 1004.9
20260504171028 25 124 0.0 9.7 0.00 0.00 0.00 45 1004.8
20260504151048 22 235 1.6 4.8 0.00 0.00 0.00 48 1005.3
20260504141028 20 210 0.0 3.2 0.00 0.00 0.00 50 1005.1
20260504081028 18 183 0.0 6.4 0.00 0.00 0.00 48 1006.4